Location: Poughquag
(41.6090°N, 73.6820°W)
Time: 11:28:34
(UTC-05:00)

N. Korean satellite - Pass Details

Date: 19 January 2020
Orbit: 456 x 505 km, 97.2° (Epoch: 24 February)

Event Time Altitude Azimuth Distance (km) Brightness Sun altitude
Rises 04:53:15 0° 29° (NNE) 2,517 10.5 -26.6°
Reaches altitude 10° 04:55:47 10° 48° (NE) 1,644 9.8 -26.2°
Maximum altitude 04:58:19 18° 94° (E) 1,217 9.4 -25.7°
Drops below altitude 10° 05:00:51 10° 140° (SE) 1,654 9.8 -25.2°
Sets 05:03:23 0° 159° (SSE) 2,538 10.6 -24.7°
